Wind_Speed
3 1 11 20 20 18 17 15 13 10 8 6 4 2 3 4 4 4 7 6 3 3 2 3 5 5 3 2 4 4 3 2 3 3 3 3 3 3 2 2 3 3 3 4 2 4 7 2 2 1 3 6 9 9
6 2 4 17 22 22 19 17 15 13 10 8 6 3 2 3 3 4 4 6 8 8 3 3 4 5 2 7 5 1 3 4 4 4 2 3 3 2 3 3 0 4 5 2 7 6 2 3 8 3 2 2 4 3
9 4 5 5 22 27 24 20 18 15 12 11 9 6 3 3 4 3 7 6 5 3 3 3 2 2 3 3 3 4 2 3 3 1 4 2 4 4 4 6 2 3 4 4 1 7 12 9 3 4 2 3 3 2
11 14 3 4 9 28 27 24 21 18 15 12 11 9 6 3 3 4 4 6 7 7 4 3 2 2 2 4 4 3 9 8 8 2 3 3 2 4 4 3 5 5 4 4 6 15 10 2 2 3 4 4 3 6
10 11 13 3 5 15 29 29 25 22 19 16 13 11 9 6 4 4 5 4 4 3 4 2 5 1 2 4 8 8 15 5 3 2 2 3 2 2 1 1 5 5 7 4 6 8 4 5 4 2 5 3 1 5
9 9 14 14 5 7 24 29 29 26 23 19 17 14 12 9 7 3 3 7 7 5 4 1 3 4 5 4 6 7 9 3 3 4 3 3 3 3 3 3 5 6 7 8 7 2 1 4 6 6 1 2 4 7
6 7 10 13 9 5 9 28 30 29 25 22 19 16 14 10 9 3 3 2 11 7 3 2 3 3 4 4 4 3 3 1 2 3 3 3 2 4 2 3 4 2 5 3 1 4 5 3 4 3 5 7 9 11
5 6 6 8 9 9 6 11 29 30 30 25 20 18 16 17 14 6 3 12 14 7 4 3 3 2 2 1 1 3 1 0 1 0 1 2 1 0 4 1 5 6 6 6 7 8 8 10 5 3 6 8 9 9
4 3 3 3 7 9 7 4 11 29 31 27 20 17 11 7 6 7 14 17 6 2 4 3 4 3 3 1 1 1 1 1 1 0 1 1 2 4 1 3 5 6 0 8 9 9 5 1 5 7 8 9 9 10
4 3 4 3 1 1 5 5 3 11 27 28 18 5 1 5 16 17 5 1 3 2 1 2 1 2 2 1 1 1 2 2 2 1 1 2 2 5 3 2 2 5 10 6 4 1 3 5 7 8 9 12 12 15
6 3 2 2 1 1 8 5 8 19 27 5 3 2 7 13 4 3 2 2 1 1 1 1 0 3 2 2 2 1 1 1 2 0 2 1 2 2 3 4 3 7 8 6 3 2 5 6 8 9 10 13 15 18
9 5 3 4 2 3 11 13 7 5 5 8 14 10 5 1 3 3 2 2 2 3 1 2 1 2 1 1 2 1 2 1 3 1 2 2 1 2 3 2 2 4 2 3 4 5 9 9 11 12 13 15 19 24
11 8 6 6 4 5 16 20 15 15 23 8 4 4 1 2 2 4 4 2 3 3 3 2 2 2 2 2 3 2 2 2 1 1 3 2 3 2 2 2 2 2 6 8 9 12 13 16 19 18 17 23 25 23
15 11 10 7 4 5 12 20 17 8 3 3 2 4 2 1 1 3 3 3 1 2 4 3 2 2 1 2 1 3 1 1 2 2 5 2 4 4 3 2 2 5 11 10 12 13 15 17 19 23 22 23 23 23
16 14 12 10 9 15 14 10 7 6 3 3 3 3 1 1 2 1 2 3 1 3 3 3 3 1 1 3 2 2 2 3 4 4 2 3 3 3 3 3 5 5 10 11 12 12 18 21 20 22 24 24 23 24
21 16 12 17 13 13 7 7 6 4 4 3 4 3 1 2 1 1 2 3 1 2 2 3 3 2 1 3 3 5 5 5 3 2 2 1 2 3 4 7 12 15 15 15 16 17 19 20 19 20 25 24 24 24
22 5 19 20 14 10 7 3 4 5 3 3 2 2 2 2 2 2 1 2 5 2 2 2 3 3 3 2 2 4 5 3 3 3 2 4 4 5 10 12 15 16 15 16 19 20 19 21 21 20 15 21 26 24
6 20 25 22 19 13 8 7 4 3 4 1 2 1 2 1 2 1 1 1 2 2 3 2 4 2 4 4 3 3 4 2 3 3 2 4 9 14 15 14 16 17 16 18 19 19 19 18 16 15 17 23 21 20
22 32 28 23 15 6 3 3 3 3 1 1 1 1 1 1 2 3 1 1 0 3 5 2 3 3 3 3 3 2 2 3 3 3 3 13 18 18 18 18 19 19 17 17 16 13 13 14 15 19 20 17 18 19
30 30 23 17 12 4 3 2 2 3 2 1 2 2 2 2 1 1 1 1 1 2 1 3 4 3 3 3 4 3 3 5 3 3 5 5 14 15 16 17 15 17 17 19 18 16 17 16 14 16 19 18 17 18
26 20 18 15 6 6 4 1 3 1 2 2 0 1 2 1 1 1 1 1 0 2 3 3 3 4 11 6 7 10 11 10 5 4 5 6 11 16 17 20 20 16 13 14 12 13 15 15 19 17 18 18 18 19
13 13 8 6 5 4 4 5 3 1 2 1 2 1 2 1 1 1 1 2 3 3 4 3 3 3 3 3 12 13 14 14 15 15 18 20 6 7 10 15 11 11 13 17 16 14 17 19 18 19 19 20 21 20
16 8 6 5 4 5 1 3 4 3 3 1 2 2 2 1 2 1 2 3 3 6 9 7 8 13 11 17 16 18 17 15 11 13 15 15 17 19 20 21 20 15 11 16 15 16 18 18 17 19 20 19 20 20
10 5 3 3 4 1 1 3 1 2 2 3 2 1 2 2 1 2 3 3 4 2 2 6 7 4 6 7 4 9 10 6 9 12 14 13 10 17 21 22 21 19 17 15 15 16 16 17 20 18 18 20 21 20
6 2 4 3 1 4 3 2 1 1 2 2 1 3 2 1 1 2 3 3 2 2 2 4 3 5 3 3 7 12 8 9 10 7 19 16 17 20 21 23 22 17 10 12 15 15 16 15 14 17 19 19 19 21
5 0 4 5 1 4 4 4 4 3 2 2 4 1 2 2 1 5 3 3 3 3 3 4 3 2 3 11 5 8 15 9 8 9 23 21 14 14 11 7 6 8 7 7 10 10 12 16 16 18 19 20 19 20
4 3 2 2 3 4 3 2 2 3 4 5 3 2 3 2 5 4 3 4 3 3 6 9 10 11 9 18 19 18 15 17 18 20 23 21 15 11 11 10 8 7 6 8 9 11 14 15 15 16 17 17 16 18
3 3 6 4 2 1 4 2 4 6 4 3 4 4 6 8 5 3 1 9 13 17 17 15 13 12 15 18 20 21 23 21 17 15 16 13 8 6 5 4 5 6 6 7 10 12 13 14 15 17 16 14 15 16
0 1 4 4 2 1 4 5 5 3 4 4 5 4 4 3 2 8 10 18 16 13 14 16 18 20 17 15 13 13 14 12 9 9 11 4 2 3 6 7 8 7 8 9 9 9 12 14 12 11 11 13 13 14
2 2 3 2 5 5 4 6 3 2 4 3 2 2 1 4 7 15 18 21 21 16 16 15 16 15 13 14 15 13 11 11 11 5 3 2 4 6 7 8 9 10 10 10 10 11 11 11 11 12 13 12 14 14
1 2 2 2 4 3 3 4 2 1 0 2 1 4 3 4 5 18 24 20 19 20 20 19 20 19 16 15 13 9 6 14 13 11 10 8 7 8 9 10 11 11 11 11 10 10 10 9 10 9 10 11 12 12
1 3 3 3 4 3 4 2 1 1 3 2 3 2 3 3 4 5 19 22 19 20 21 19 16 18 17 12 11 11 10 11 13 13 12 11 11 11 12 12 11 10 9 9 8 7 6 6 7 9 9 10 11 11
1 0 0 2 4 5 3 2 4 5 2 2 2 1 1 3 3 3 12 21 17 18 22 22 15 11 11 14 16 16 15 14 13 12 12 12 12 12 12 12 12 10 9 8 7 6 6 7 8 8 9 9 9 10
Wind_Direction
9 152 216 208 210 211 211 210 206 205 201 192 173 128 81 73 84 108 86 65 79 101 253 181 152 126 97 104 140 178 83 3 74 90 146 192 196 211 186 228 196 236 205 217 169 238 277 203 274 244 323 293 269 314
17 284 274 221 214 212 213 214 209 206 205 198 186 165 95 79 92 120 105 89 80 86 154 140 106 102 121 175 133 27 166 160 167 98 165 128 203 186 186 233 299 272 201 197 186 230 262 236 282 349 315 358 15 60
39 360 256 246 220 216 212 213 210 207 206 205 198 184 149 94 76 120 122 117 90 82 19 90 114 112 166 154 142 122 274 150 158 110 146 150 214 142 184 225 214 262 184 224 205 239 259 269 304 89 124 147 204 53
38 23 300 254 235 214 212 213 212 211 208 207 208 201 188 161 120 117 125 111 95 95 111 274 353 129 157 197 187 144 134 112 100 95 119 152 184 180 210 241 201 232 174 223 248 286 279 244 204 188 174 89 156 224
21 20 12 316 257 220 213 212 213 212 210 210 208 202 191 183 166 128 115 116 120 132 170 245 299 19 329 213 180 160 146 118 138 120 131 211 189 167 194 0 240 178 224 222 262 300 301 6 28 99 137 178 293 324
12 14 8 4 350 254 214 211 211 211 210 208 208 204 195 184 167 136 19 201 174 125 96 55 350 3 13 63 125 137 158 120 147 157 190 214 243 155 193 221 244 233 245 247 283 29 292 75 113 145 123 355 335 318
357 11 21 348 8 359 233 210 210 208 207 208 208 199 200 189 181 183 187 141 163 137 88 356 335 317 15 50 44 46 46 134 154 184 189 182 200 157 206 249 214 347 342 305 65 131 103 166 137 72 13 335 316 297
341 353 16 0 15 12 14 216 204 207 203 201 198 198 190 195 198 201 178 148 149 106 83 138 254 23 17 66 82 353 104 319 41 204 59 183 50 144 243 183 344 314 321 55 43 61 88 93 70 331 286 289 300 299
305 313 351 30 13 3 15 22 204 209 202 192 193 189 167 181 160 165 171 168 170 131 167 137 155 212 134 104 112 59 71 95 7 177 232 115 193 217 307 319 337 333 129 117 89 99 106 24 268 285 306 309 296 294
271 272 308 328 342 244 16 21 112 189 186 174 142 146 92 164 133 122 108 68 38 344 38 132 74 150 118 115 40 124 30 138 210 231 314 215 250 115 36 60 52 85 106 125 112 40 316 320 323 312 300 298 296 292
258 265 294 316 335 186 155 56 127 144 140 99 97 83 118 130 99 43 81 95 180 131 139 147 138 132 6 126 159 72 161 129 230 212 224 235 239 134 116 119 80 75 79 72 70 339 324 298 298 308 315 315 307 302
230 215 206 174 76 130 154 150 121 101 50 93 107 107 80 23 74 132 151 125 206 164 149 126 132 79 59 70 105 148 144 118 234 341 232 239 186 141 140 112 110 116 74 337 322 314 318 313 320 315 309 311 310 307
219 201 176 174 150 107 162 153 164 160 121 110 81 87 164 348 103 156 161 98 136 159 159 156 94 96 78 57 80 110 147 204 84 204 240 236 155 152 168 184 175 302 315 316 320 325 323 319 318 315 307 313 314 306
210 197 170 164 175 141 161 143 124 117 95 77 100 101 74 163 195 168 155 144 174 125 123 93 74 85 35 82 102 124 95 118 197 234 229 193 187 179 196 204 256 292 308 312 305 307 309 310 307 316 317 319 316 303
200 190 169 155 151 134 132 127 109 99 59 86 70 105 137 61 56 81 115 110 75 126 116 112 90 88 48 99 43 106 130 235 220 232 211 195 194 201 223 248 285 277 293 301 306 304 307 312 308 307 318 321 318 316
195 180 179 161 163 173 130 102 81 68 61 79 76 104 156 102 122 114 90 113 133 102 75 57 104 119 144 125 140 202 169 223 240 212 210 187 202 219 240 261 278 290 296 296 299 301 303 301 302 304 313 323 328 326
188 162 173 161 154 162 160 59 40 44 80 57 57 70 90 87 152 119 112 121 118 97 150 131 140 192 106 107 219 192 207 214 198 207 210 211 211 244 264 280 289 295 296 298 300 300 301 311 315 311 302 315 318 317
196 161 167 159 148 126 60 36 63 54 61 83 118 184 106 126 120 53 116 112 124 140 142 166 117 133 189 192 232 225 227 248 227 219 225 234 248 268 277 275 284 287 287 291 298 305 311 320 316 304 299 301 311 320
170 158 157 152 145 110 88 46 39 99 149 139 102 99 96 105 65 54 75 172 43 120 113 82 113 205 224 218 217 218 225 217 216 232 227 248 261 267 274 280 280 282 285 292 299 299 304 309 302 303 300 303 304 307
152 143 143 141 157 88 73 14 41 90 120 169 77 109 79 65 72 62 84 122 126 135 149 206 216 212 198 216 199 201 200 205 204 270 274 234 258 270 266 268 270 284 293 297 297 295 302 300 296 304 307 294 296 303
117 114 114 112 69 60 84 83 34 121 129 89 51 92 81 42 68 107 142 81 219 223 235 217 215 237 226 235 235 237 244 230 222 221 266 285 261 245 261 275 282 288 282 286 285 289 291 283 295 306 306 295 295 300
114 115 98 60 71 46 67 26 122 121 76 149 60 55 80 90 168 194 134 193 235 233 215 206 227 232 244 223 250 259 268 270 263 256 262 264 273 262 257 272 283 273 278 276 279 282 289 299 301 307 300 288 293 302
111 88 59 51 74 46 309 1 70 9 105 272 25 45 344 15 223 291 232 233 252 241 231 238 255 272 262 280 282 278 276 264 252 253 263 264 271 277 278 280 274 255 259 274 290 290 289 300 301 302 304 296 299 294
87 64 69 73 77 106 38 17 29 87 64 53 77 308 279 217 231 197 247 246 247 262 224 239 251 273 281 258 246 265 285 261 267 286 292 282 274 280 282 275 269 261 257 280 288 289 295 290 302 302 306 309 304 301
84 355 99 56 63 84 88 46 35 175 151 137 117 277 268 37 114 235 237 264 264 259 263 287 266 218 219 261 280 268 251 243 247 253 292 290 284 290 293 290 284 276 277 283 286 292 297 304 301 303 306 301 297 299
82 159 123 171 172 129 176 148 178 160 138 171 226 318 23 90 73 251 227 232 228 221 226 219 215 219 250 229 238 260 277 293 275 257 289 301 290 270 271 281 289 292 298 285 282 293 301 304 301 304 306 307 307 307
110 160 160 76 113 117 75 45 70 114 162 198 210 124 94 169 241 252 273 226 224 241 309 312 286 257 258 281 276 282 289 296 286 279 290 293 287 287 278 274 284 292 293 299 300 305 307 304 305 307 315 316 318 321
165 154 155 187 96 51 128 113 159 203 219 180 108 177 187 197 229 235 267 18 346 328 319 316 321 318 310 305 303 304 304 302 294 293 293 291 299 300 296 303 316 314 307 314 314 311 312 313 311 315 317 316 323 331
80 167 93 143 102 209 210 187 210 224 179 157 171 218 231 212 33 4 350 356 354 355 357 350 346 343 338 336 332 331 323 310 285 270 265 246 224 273 329 338 337 335 332 324 317 321 320 321 322 326 325 326 334 341
239 140 98 151 171 218 238 180 215 235 204 190 186 335 341 82 53 40 31 25 23 11 357 348 346 353 346 348 340 347 14 24 28 359 334 8 27 356 356 354 351 346 341 338 338 335 336 335 338 340 346 354 360 7
123 145 87 170 228 243 239 314 297 251 33 230 273 189 231 133 106 39 32 26 21 17 9 357 350 356 346 342 341 342 9 28 34 35 39 40 28 18 12 5 357 349 345 342 339 336 334 344 356 7 23 33 36 39
169 198 161 213 267 292 7 32 338 304 324 354 285 25 37 66 53 33 15 20 18 14 359 349 348 341 12 57 50 47 40 25 23 19 16 16 13 9 6 0 357 355 355 356 355 357 6 21 37 45 50 51 49 46
43 127 3 301 326 335 325 49 17 328 344 328 310 173 107 107 123 10 18 27 22 7 357 357 3 20 31 39 35 30 25 20 14 9 7 5 359 357 359 1 4 6 11 18 29 34 41 47 56 56 54 52 49 45
Height
762 764 768 773 778 782 786 789 792 795 798 799 800 800 801 801 801 801 804 804 805 818 822 820 821 828 834 838 844 850 853 858 866 872 875 877 880 871 871 866 867 861 866 875 880 872 860 837 838 840 838 836 836 833
763 764 767 770 775 780 784 787 790 794 797 799 799 801 801 802 803 803 804 806 806 809 819 820 821 822 824 825 835 847 843 848 852 866 877 881 878 888 873 859 864 859 853 852 858 845 835 836 833 834 837 838 839 840
764 765 766 767 771 776 781 785 789 792 795 798 800 801 802 803 804 804 805 806 808 815 822 821 823 824 824 825 826 836 847 842 847 848 861 869 865 869 867 867 862 852 850 850 852 835 831 830 832 837 838 838 838 839
765 765 766 767 767 771 776 781 785 790 793 796 799 800 802 804 805 805 806 807 809 818 833 827 822 823 824 824 826 827 830 837 843 850 859 864 863 854 859 848 849 842 847 843 842 829 828 829 830 832 835 837 838 837
765 764 765 765 765 766 771 777 781 786 790 794 797 800 802 804 806 807 807 809 810 814 829 829 822 823 823 823 825 826 829 835 844 851 855 854 854 854 856 855 848 840 836 838 829 824 828 828 831 835 836 836 834 835
766 764 764 764 763 763 766 772 777 782 787 792 796 799 802 804 806 807 810 810 811 812 822 831 827 824 823 823 825 827 829 833 837 840 847 844 838 842 847 842 833 828 826 825 825 829 830 830 834 835 835 835 834 834
768 767 766 766 764 763 762 766 772 778 784 789 794 797 801 803 805 808 811 809 810 812 821 831 830 827 826 826 829 830 831 832 833 837 840 839 839 838 844 834 825 825 826 825 825 826 832 834 835 836 836 835 833 831
768 767 767 767 766 763 761 762 766 773 779 785 791 795 799 801 804 807 808 808 811 813 819 829 828 832 828 832 833 834 834 833 832 832 838 837 838 838 831 824 828 828 826 826 827 826 830 835 837 836 833 830 828 826
770 770 769 767 767 766 763 762 762 767 774 780 787 793 796 798 799 801 806 809 811 815 819 825 823 824 828 832 834 835 835 834 837 837 838 837 833 828 831 833 831 829 828 832 833 834 835 835 834 832 831 829 826 822
770 771 770 770 769 768 766 765 763 764 770 776 784 791 794 795 798 803 806 811 811 814 818 817 821 822 824 832 833 834 836 834 832 836 838 835 829 832 834 834 834 833 830 833 834 835 834 833 832 831 829 826 824 821
770 770 770 769 769 769 769 768 767 768 772 773 782 790 795 796 798 803 810 813 817 817 819 820 821 818 825 827 830 836 834 837 834 837 834 832 828 832 834 835 835 833 833 835 834 834 834 833 831 828 824 822 819 816
772 772 773 773 772 770 770 772 772 772 774 778 781 789 794 798 802 807 808 815 813 811 819 819 821 822 828 828 831 837 834 840 842 846 838 828 831 833 833 833 834 834 834 833 832 832 830 828 826 824 821 818 815 811
773 774 774 774 774 773 774 773 774 777 779 781 784 792 795 802 798 798 801 806 809 816 820 820 823 826 829 830 833 837 838 839 849 842 834 832 831 833 834 834 834 833 831 831 829 828 826 824 821 820 817 813 810 805
772 774 774 775 775 774 774 776 777 780 782 786 790 793 798 801 801 808 809 811 816 815 817 820 826 827 834 833 838 836 848 849 839 844 833 832 830 831 832 833 833 831 829 828 825 823 821 820 816 811 810 808 805 799
771 774 775 775 777 777 779 779 778 779 783 790 793 799 803 810 808 808 809 811 815 816 817 822 828 831 838 839 843 846 843 840 837 830 829 828 829 830 830 829 829 828 826 824 822 820 817 815 813 808 804 801 798 793
769 773 774 774 777 779 780 780 780 781 787 794 803 809 811 812 811 809 810 812 815 817 820 824 832 831 834 839 841 842 842 838 827 832 828 828 827 827 827 826 824 823 822 820 818 816 813 810 807 803 798 795 792 789
765 767 771 774 778 781 782 782 783 789 795 801 808 806 809 812 808 809 810 811 814 818 821 828 827 826 843 842 841 840 836 827 826 825 825 825 824 823 822 820 818 817 816 815 814 811 807 804 802 799 794 789 787 784
763 767 772 776 779 783 785 787 792 796 802 808 808 810 810 811 814 815 813 813 815 818 821 824 832 841 840 836 830 826 825 824 824 822 821 820 819 818 817 815 813 813 811 809 808 805 802 800 798 793 790 786 782 780
762 766 773 777 780 783 790 796 796 803 810 811 813 812 812 813 813 813 815 816 816 817 821 828 837 832 827 828 823 824 825 823 818 817 816 815 815 813 812 810 809 807 805 803 801 799 798 797 795 791 787 784 780 776
761 766 773 777 780 784 794 800 798 802 809 811 812 813 815 816 817 817 817 816 817 818 820 821 821 819 820 816 815 814 813 813 815 813 809 810 809 808 807 805 802 800 798 796 794 794 793 790 789 786 783 780 776 772
765 771 775 779 784 788 795 802 805 807 809 811 815 815 819 817 817 818 818 819 819 818 817 814 813 808 807 808 809 809 809 809 808 808 804 802 803 803 801 798 795 794 793 791 790 789 788 786 783 780 777 775 772 768
770 774 779 783 788 794 801 804 806 809 812 816 817 817 825 828 819 819 819 820 817 813 808 804 803 803 804 804 802 802 801 801 802 801 798 798 797 795 792 790 789 787 787 786 785 784 782 780 778 775 773 769 766 762
773 778 784 789 796 804 811 807 813 813 819 822 823 823 827 830 827 822 820 814 810 802 800 800 798 798 798 797 797 796 796 796 795 793 792 791 789 787 785 783 782 782 781 779 779 778 776 775 773 771 767 763 760 756
776 784 792 800 806 813 810 816 814 816 822 827 829 825 827 827 824 821 818 817 803 797 796 794 795 796 795 795 794 791 789 789 788 786 785 785 783 779 777 775 774 773 773 773 773 772 771 770 768 765 763 759 755 751
786 797 800 804 806 813 818 817 817 811 813 821 824 827 829 829 829 827 816 808 799 795 792 792 793 793 794 791 788 785 785 784 783 782 779 779 777 775 772 770 769 770 770 769 768 767 766 765 763 761 758 754 750 746
798 798 806 811 814 815 824 816 815 815 826 829 823 832 836 834 831 818 809 798 796 792 790 790 790 789 788 786 784 782 780 779 779 778 773 772 771 770 767 766 765 764 765 764 763 763 762 760 758 755 752 749 746 742
798 796 799 800 804 811 823 827 825 830 824 823 828 835 835 828 828 806 793 788 788 786 787 786 785 784 782 779 778 776 776 775 774 771 768 767 766 765 764 763 762 762 761 761 761 760 758 756 754 751 749 745 743 739
798 799 801 804 804 810 819 829 827 820 816 813 821 820 816 815 804 793 790 791 789 787 785 784 783 781 778 776 774 772 769 768 766 764 763 763 762 761 760 760 760 759 758 758 757 756 754 753 750 748 745 743 740 736
792 796 799 799 805 807 811 804 804 800 796 802 807 811 803 795 795 795 793 791 789 787 785 782 779 778 775 773 771 769 766 763 762 760 757 757 758 759 759 758 757 756 755 754 753 752 751 749 747 745 743 740 737 734
793 796 804 810 808 804 794 792 794 789 789 789 790 790 789 794 800 798 795 793 791 791 790 788 784 780 777 775 771 769 767 764 762 761 758 757 759 759 758 756 755 755 753 752 751 749 748 746 744 742 739 737 734 732
798 796 801 802 802 795 790 790 788 788 788 788 786 788 784 793 798 799 798 797 795 792 789 787 784 782 780 776 773 770 769 768 766 764 763 762 760 759 758 756 755 753 751 750 749 747 746 744 742 740 739 737 736 734
795 796 801 801 798 793 792 792 795 796 794 792 787 791 790 793 803 803 804 800 797 795 794 792 787 784 782 779 777 775 775 772 769 767 765 763 762 760 758 756 754 752 750 748 747 746 745 743 742 741 740 739 738 736
803 801 802 805 800 796 799 798 801 796 798 800 798 797 798 801 809 809 807 804 803 801 798 794 790 788 786 783 780 778 776 774 772 769 767 764 762 760 758 755 753 751 749 748 747 746 745 744 743 742 741 741 740 739